Погода в Луговом

Россия / Ханты-Мансийский автономный округ - Югра     59°43′22″N   65°53′00″E
темп.,
°C
ветер,
м/с
пор.,
м/с
влажн.,
%
обл.,
%
осадки,
мм/ч
давл.,
гПа
погр.,
м
14 апреля, ср
ср1423:00+8зюз51568100 0.0 1028531
02:00+7зюз51474100 0.0 1026456
05:00+7зюз5147791 0.0 1025451
08:00+8з5127975 0.0 1025555
11:00+11зсз4772100 0.0 1025954
14:00+13з3667100 0.0 10251043
17:00+14зюз366385 0.0 1024575
20:00+11зюз22785 0.0 102330
15 апреля, чт
чт1523:00+8зюз4118056 0.0 1022268
02:00+7зюз3119322 0.0 1021265
05:00+7юз413905 0.0 1020304
08:00+10зюз514685 0.0 1018456
11:00+16зюз613465 0.0 10161013
14:00+19зюз712375 0.0 10141704
17:00+19з6124793 0.0 10132054
20:00+15з61265100 0.9 1012840
16 апреля, пт
пт1623:00+6с51083100 3.3 1014795
02:00+5ссз497045 1.1 1016941
05:00+3ссз4964100 1.1 1018708
08:00+3ссз57635 0.0 10211026
11:00+3с5754100 0.1 10241549
14:00+4ссв56365 0.0 10251871
17:00+3св33335 0.0 10261636
20:00+1всв2447100 0.0 1026117
17 апреля, сб
сб1723:00−1юв2654100 0.0 1025191
02:00−2ю495732 0.0 1022369
05:00−1ююз51260100 0.0 1019504
08:000зюз51185100 0.2 1016697
11:00+3ссз7956100 0.3 10191568
14:00+1ссз8123222 0.1 10172161
17:00−1ссз7123698 0.1 10202283
20:00−4с411433 0.0 10211432
18 апреля, вс
вс1823:00−5с410435 0.0 10201340
02:00−6ссз49409 0.0 10201087
05:00−7ссз594238 0.0 10211069
08:00−6с610360 0.0 10211180
11:00−3с7113145 0.0 10221911
14:00−2с81132100 0.0 10242525
17:00−1ссв5842100 0.1 10291730
20:00−4с5114546 0.0 10281695